Madison, SD

6:47 PM CST on November 18, 2019 (GMT -0600)
Madison Municipal

Weather History for KMDS - September, 2019

Change the Weather History Date:

Thursday, September 12, 2019

  Actual Average Record
Temperature  
Mean Temperature 60 °F -  
Max Temperature 66 °F 75 °F 84 °F (2011)
Min Temperature 53 °F 50 °F 37 °F (2014)
Degree Days  
Heating Degree Days 6    
Growing Degree Days 10 (Base 50)    
Moisture  
Dew Point 58 °F    
Average Humidity 99    
Maximum Humidity 100    
Minimum Humidity 82    
Precipitation  
Precipitation 5.44 in - - ()
Sea Level Pressure  
Sea Level Pressure 29.87 in    
Wind  
Wind Speed 13 mph ()    
Max Wind Speed 24 mph    
Max Gust Speed 36 mph    
Visibility 7.7 miles    
Events Fog , Rain , Thunderstorm    
Averages and records for this station are not official NWS values.
T = Trace of Precipitation, MM = Missing Value Source: Averaged Metar Reports

Daily Weather History Graph

Daily Weather History Graph

Search for Another Location

Airport or City:

Astronomy

Sep. 12, 2019 Rise Set
Actual Time 7:03 AM CDT 7:44 PM CDT
Civil Twilight 6:34 AM CDT 8:13 PM CDT
Nautical Twilight 6:00 AM CDT 8:48 PM CDT
Astronomical Twilight 5:24 AM CDT 9:23 PM CDT
Moon 7:33 PM CDT (9/12) 5:19 AM CDT (9/12)
Length of Visible Light 13h 38m
Length of Day
12h 40m
Waxing Gibbous, 98% of the Moon is Illuminated
Sep 12
Waxing Gibbous
Sep 13
Full
Sep 21
Last Quarter
Sep 28
New
Oct 5
First Quarter

Hourly Weather History & Observations

Time (CDT) Temp. Dew Point Humidity Pressure Visibility Wind Dir Wind Speed Gust Speed Precip Events Conditions
12:00 AM 59.0 °F 59.0 °F 100% 29.97 in 2.0 mi North 13.8 mph - 1.37 in Rain , Thunderstorm Heavy Rain
12:15 AM 59.0 °F 59.0 °F 100% 29.97 in 1.8 mi NNE 13.8 mph - 0.38 in Rain , Thunderstorm Heavy Thunderstorms and Rain
12:20 AM 59.0 °F 59.0 °F 100% 29.96 in 2.0 mi NE 12.7 mph - 0.50 in Rain , Thunderstorm Heavy Thunderstorms and Rain
12:35 AM 59.0 °F 59.0 °F 100% 29.94 in 2.0 mi NE 16.1 mph 21.9 mph 0.88 in Rain , Thunderstorm Heavy Rain
12:55 AM 59.0 °F 59.0 °F 100% 29.94 in 5.0 mi ENE 16.1 mph 23.0 mph 1.11 in Rain Heavy Rain
1:15 AM 59.0 °F 59.0 °F 100% 29.91 in 2.0 mi ENE 19.6 mph 25.3 mph 0.22 in Rain , Thunderstorm Heavy Thunderstorms and Rain
1:20 AM 59.0 °F 59.0 °F 100% 29.92 in 2.0 mi East 18.4 mph 25.3 mph 0.33 in Rain , Thunderstorm Heavy Rain
1:35 AM 59.0 °F 59.0 °F 100% 29.91 in 3.0 mi ENE 20.7 mph 27.6 mph 0.57 in Rain , Thunderstorm Heavy Thunderstorms and Rain
1:55 AM 57.2 °F 57.2 °F 100% 29.90 in 5.0 mi ENE 16.1 mph 27.6 mph 0.88 in Rain , Thunderstorm Heavy Rain
2:15 AM 57.2 °F 57.2 °F 100% 29.96 in 1.8 mi NW 10.4 mph - 0.25 in Rain , Thunderstorm Heavy Thunderstorms and Rain
2:35 AM 55.4 °F 55.4 °F 100% 29.90 in 1.2 mi NE 20.7 mph 26.5 mph 1.00 in Rain , Thunderstorm Heavy Rain
2:55 AM 57.2 °F 57.2 °F 100% 29.96 in 3.0 mi ENE 16.1 mph 21.9 mph 1.45 in Rain , Thunderstorm Heavy Rain
3:00 AM 57.2 °F 57.2 °F 100% 29.92 in 2.5 mi ENE 24.2 mph 31.1 mph 1.58 in Rain , Thunderstorm Heavy Rain
3:15 AM 55.4 °F 55.4 °F 100% 29.90 in 5.0 mi NE 18.4 mph 35.7 mph 0.25 in Rain Heavy Rain
3:20 AM 55.4 °F 55.4 °F 100% 29.95 in 7.0 mi WNW 20.7 mph 34.5 mph 0.28 in Rain , Thunderstorm Heavy Rain
3:35 AM 55.4 °F 55.4 °F 100% 29.88 in 5.0 mi ENE 24.2 mph 34.5 mph 0.38 in Rain Heavy Rain
3:55 AM 55.4 °F 55.4 °F 100% 29.86 in 10.0 mi NE 21.9 mph 31.1 mph 0.40 in Rain Light Rain
4:00 AM 55.4 °F 55.4 °F 100% 29.87 in 10.0 mi ENE 18.4 mph 31.1 mph 0.41 in Rain Light Rain
4:15 AM 55.4 °F 55.4 °F 100% 29.87 in 10.0 mi ENE 16.1 mph 26.5 mph N/A   Mostly Cloudy
4:35 AM 55.4 °F 55.4 °F 100% 29.88 in 10.0 mi ENE 20.7 mph 24.2 mph N/A   Mostly Cloudy
4:40 AM 55.4 °F 55.4 °F 100% 29.89 in 10.0 mi ENE 17.3 mph 24.2 mph N/A   Mostly Cloudy
4:55 AM 53.6 °F 53.6 °F 100% 29.88 in 10.0 mi ENE 17.3 mph 23.0 mph N/A   Mostly Cloudy
5:00 AM 53.6 °F 53.6 °F 100% 29.88 in 10.0 mi ENE 19.6 mph 23.0 mph N/A   Scattered Clouds
5:15 AM 53.6 °F 53.6 °F 100% 29.90 in 10.0 mi ENE 9.2 mph - N/A   Mostly Cloudy
5:35 AM 55.4 °F 55.4 °F 100% 29.89 in 10.0 mi ENE 12.7 mph - N/A   Overcast
5:40 AM 55.4 °F 55.4 °F 100% 29.88 in 10.0 mi NE 15.0 mph 18.4 mph N/A   Overcast
5:55 AM 53.6 °F 53.6 °F 100% 29.87 in 10.0 mi NE 16.1 mph - N/A   Overcast
6:00 AM 53.6 °F 53.6 °F 100% 29.87 in 10.0 mi NE 12.7 mph - N/A   Overcast
6:15 AM 53.6 °F 53.6 °F 100% 29.87 in 10.0 mi NE 10.4 mph 20.7 mph N/A   Overcast
6:35 AM 53.6 °F 53.6 °F 100% 29.86 in 10.0 mi ENE 13.8 mph 20.7 mph N/A   Overcast
6:55 AM 53.6 °F 53.6 °F 100% 29.85 in 10.0 mi ENE 13.8 mph - N/A   Overcast
7:00 AM 53.6 °F 53.6 °F 100% 29.84 in 10.0 mi ENE 13.8 mph - N/A   Overcast
7:15 AM 53.6 °F 53.6 °F 100% 29.82 in 10.0 mi ENE 13.8 mph 18.4 mph N/A   Overcast
7:20 AM 53.6 °F 53.6 °F 100% 29.82 in 10.0 mi ENE 12.7 mph 18.4 mph N/A   Overcast
7:35 AM 53.6 °F 53.6 °F 100% 29.81 in 10.0 mi ENE 12.7 mph - N/A   Overcast
7:40 AM 53.6 °F 53.6 °F 100% 29.81 in 10.0 mi ENE 12.7 mph - N/A   Overcast
7:55 AM 53.6 °F 53.6 °F 100% 29.82 in 10.0 mi East 12.7 mph 18.4 mph N/A Thunderstorm Overcast
8:00 AM 53.6 °F 53.6 °F 100% 29.82 in 10.0 mi East 13.8 mph 17.3 mph N/A Thunderstorm Overcast
8:15 AM 53.6 °F 53.6 °F 100% 29.82 in 10.0 mi ESE 10.4 mph - N/A   Overcast
8:35 AM 53.6 °F 53.6 °F 100% 29.83 in 3.0 mi ESE 5.8 mph - N/A   Overcast
8:55 AM 55.4 °F 55.4 °F 100% 29.84 in 0.8 mi ESE 3.5 mph - N/A   Overcast
9:00 AM 55.4 °F 55.4 °F 100% 29.85 in 0.8 mi Calm Calm - N/A   Overcast
9:15 AM 55.4 °F 55.4 °F 100% 29.85 in 0.5 mi ENE 3.5 mph - N/A Rain Light Rain
9:20 AM 55.4 °F 55.4 °F 100% 29.85 in 0.5 mi NE 3.5 mph - N/A Fog Fog
9:35 AM 55.4 °F 55.4 °F 100% 29.85 in 0.8 mi NE 3.5 mph - N/A   Overcast
9:40 AM 55.4 °F 55.4 °F 100% 29.85 in 0.8 mi NNE 4.6 mph - N/A   Overcast
9:55 AM 55.4 °F 55.4 °F 100% 29.85 in 1.5 mi Calm Calm - N/A   Mostly Cloudy
10:15 AM 55.4 °F 55.4 °F 100% 29.85 in 2.5 mi NNE 3.5 mph - N/A   Clear
10:20 AM 55.4 °F 55.4 °F 100% 29.85 in 3.0 mi Calm Calm - N/A   Clear
10:35 AM 55.4 °F 55.4 °F 100% 29.85 in 2.0 mi Calm Calm - N/A   Mostly Cloudy
11:00 AM 57.2 °F 57.2 °F 100% 29.85 in 0.8 mi NW 9.2 mph - N/A Rain Light Rain
11:15 AM 57.2 °F 57.2 °F 100% 29.86 in 1.5 mi NW 8.1 mph - N/A   Clear
11:20 AM 57.2 °F 57.2 °F 100% 29.86 in 3.0 mi NNW 8.1 mph - N/A   Clear
11:35 AM 57.2 °F 57.2 °F 100% 29.86 in 9.0 mi NNW 6.9 mph - N/A   Partly Cloudy
11:40 AM 57.2 °F 57.2 °F 100% 29.86 in 10.0 mi NW 6.9 mph - N/A   Partly Cloudy
11:55 AM 57.2 °F 57.2 °F 100% 29.86 in 10.0 mi WNW 5.8 mph - N/A   Mostly Cloudy
12:15 PM 59.0 °F 59.0 °F 100% 29.85 in 10.0 mi NNW 3.5 mph - N/A   Mostly Cloudy
12:20 PM 59.0 °F 59.0 °F 100% 29.86 in 10.0 mi Calm Calm - N/A   Mostly Cloudy
12:35 PM 59.0 °F 59.0 °F 100% 29.86 in 10.0 mi West 4.6 mph - N/A   Mostly Cloudy
12:40 PM 59.0 °F 59.0 °F 100% 29.87 in 10.0 mi West 4.6 mph - N/A   Mostly Cloudy
12:55 PM 60.8 °F 60.8 °F 100% 29.86 in 10.0 mi SW 4.6 mph - N/A   Mostly Cloudy
1:15 PM 62.6 °F 62.6 °F 100% 29.84 in 10.0 mi Calm Calm - N/A   Scattered Clouds
1:20 PM 62.6 °F 62.6 °F 100% 29.83 in 10.0 mi Calm Calm - N/A   Scattered Clouds
1:35 PM 64.4 °F 64.4 °F 100% 29.84 in 10.0 mi SW 6.9 mph - N/A   Clear
1:55 PM 64.4 °F 64.4 °F 100% 29.85 in 10.0 mi WSW 11.5 mph - N/A   Mostly Cloudy
2:15 PM 62.6 °F 62.6 °F 100% 29.86 in 10.0 mi WSW 16.1 mph 21.9 mph N/A   Overcast
2:20 PM 62.6 °F 62.6 °F 100% 29.86 in 10.0 mi West 12.7 mph 21.9 mph N/A   Overcast
2:35 PM 64.4 °F 64.4 °F 100% 29.86 in 10.0 mi West 8.1 mph - N/A   Overcast
2:55 PM 64.4 °F 64.4 °F 100% 29.86 in 10.0 mi WSW 15.0 mph - N/A   Overcast
3:00 PM 64.4 °F 64.4 °F 100% 29.86 in 10.0 mi WSW 13.8 mph - N/A   Overcast
3:15 PM 64.4 °F 64.4 °F 100% 29.86 in 10.0 mi West 10.4 mph - N/A   Overcast
3:35 PM 64.4 °F 64.4 °F 100% 29.85 in 10.0 mi SW 11.5 mph - N/A   Overcast
3:40 PM 64.4 °F 64.4 °F 100% 29.85 in 10.0 mi WSW 10.4 mph - N/A   Overcast
3:55 PM 64.4 °F 64.4 °F 100% 29.85 in 10.0 mi WSW 11.5 mph 17.3 mph N/A   Overcast
4:15 PM 64.4 °F 64.4 °F 100% 29.85 in 10.0 mi WSW 11.5 mph - N/A   Overcast
4:20 PM 64.4 °F 64.4 °F 100% 29.85 in 10.0 mi WSW 10.4 mph - N/A   Overcast
4:35 PM 66.2 °F 66.2 °F 100% 29.84 in 10.0 mi WSW 10.4 mph 16.1 mph N/A   Mostly Cloudy
4:55 PM 64.4 °F 64.4 °F 100% 29.84 in 10.0 mi SW 12.7 mph 17.3 mph N/A   Mostly Cloudy
5:00 PM 64.4 °F 64.4 °F 100% 29.84 in 5.0 mi WSW 18.4 mph 24.2 mph 0.01 in Rain Light Rain
5:15 PM 64.4 °F 64.4 °F 100% 29.84 in 10.0 mi West 16.1 mph 21.9 mph N/A   Mostly Cloudy
5:20 PM 64.4 °F 64.4 °F 100% 29.84 in 10.0 mi West 17.3 mph 26.5 mph N/A   Mostly Cloudy
5:35 PM 64.4 °F 64.4 °F 100% 29.84 in 10.0 mi West 16.1 mph 25.3 mph N/A   Partly Cloudy
5:55 PM 64.4 °F 64.4 °F 100% 29.85 in 10.0 mi WSW 19.6 mph 24.2 mph N/A   Scattered Clouds
6:15 PM 64.4 °F 64.4 °F 100% 29.85 in 10.0 mi WSW 13.8 mph 21.9 mph N/A   Partly Cloudy
6:35 PM 64.4 °F 62.6 °F 94% 29.85 in 10.0 mi WSW 16.1 mph 21.9 mph N/A   Clear
6:40 PM 64.4 °F 60.8 °F 88% 29.86 in 10.0 mi WSW 18.4 mph 24.2 mph N/A   Clear
6:55 PM 64.4 °F 59.0 °F 83% 29.86 in 10.0 mi WSW 12.7 mph 21.9 mph N/A   Partly Cloudy
7:15 PM 62.6 °F 57.2 °F 82% 29.87 in 10.0 mi WSW 17.3 mph 24.2 mph N/A   Partly Cloudy
7:20 PM 62.6 °F 57.2 °F 82% 29.87 in 10.0 mi WSW 17.3 mph 24.2 mph N/A   Scattered Clouds
7:35 PM 62.6 °F 57.2 °F 82% 29.88 in 10.0 mi West 16.1 mph 27.6 mph N/A   Scattered Clouds
7:40 PM 62.6 °F 57.2 °F 82% 29.88 in 10.0 mi West 16.1 mph 27.6 mph N/A   Mostly Cloudy
7:55 PM 62.6 °F 59.0 °F 88% 29.88 in 10.0 mi West 11.5 mph 21.9 mph N/A   Scattered Clouds
8:00 PM 62.6 °F 59.0 °F 88% 29.88 in 10.0 mi West 11.5 mph 20.7 mph N/A   Scattered Clouds
8:15 PM 60.8 °F 60.8 °F 100% 29.89 in 10.0 mi West 13.8 mph 18.4 mph N/A   Scattered Clouds
8:20 PM 59.0 °F 59.0 °F 100% 29.89 in 10.0 mi WSW 11.5 mph 18.4 mph N/A   Scattered Clouds
8:35 PM 59.0 °F 59.0 °F 100% 29.89 in 10.0 mi WSW 12.7 mph 17.3 mph N/A   Mostly Cloudy
8:40 PM 59.0 °F 59.0 °F 100% 29.89 in 10.0 mi WSW 11.5 mph 17.3 mph N/A   Mostly Cloudy
8:55 PM 59.0 °F 59.0 °F 100% 29.90 in 10.0 mi WSW 11.5 mph 19.6 mph N/A   Overcast
9:15 PM 59.0 °F 59.0 °F 100% 29.89 in 10.0 mi WSW 10.4 mph - N/A   Overcast
9:35 PM 59.0 °F 59.0 °F 100% 29.91 in 4.0 mi West 11.5 mph 18.4 mph N/A   Mostly Cloudy
9:55 PM 57.2 °F 57.2 °F 100% 29.92 in 4.0 mi NW 16.1 mph 27.6 mph N/A   Mostly Cloudy
10:00 PM 57.2 °F 57.2 °F 100% 29.92 in 8.0 mi NW 16.1 mph 24.2 mph N/A   Mostly Cloudy
10:15 PM 57.2 °F 57.2 °F 100% 29.92 in 10.0 mi NW 16.1 mph 19.6 mph N/A   Overcast
10:35 PM 57.2 °F 57.2 °F 100% 29.92 in 5.0 mi WNW 13.8 mph 20.7 mph N/A   Mostly Cloudy
10:40 PM 55.4 °F 55.4 °F 100% 29.92 in 10.0 mi WNW 13.8 mph 20.7 mph N/A   Mostly Cloudy
11:00 PM 55.4 °F 55.4 °F 100% 29.94 in 10.0 mi WNW 15.0 mph 21.9 mph N/A   Mostly Cloudy
11:15 PM 55.4 °F 55.4 °F 100% 29.94 in 10.0 mi WNW 16.1 mph 23.0 mph N/A   Mostly Cloudy
11:35 PM 55.4 °F 55.4 °F 100% 29.94 in 10.0 mi WNW 17.3 mph 23.0 mph N/A   Overcast
11:40 PM 55.4 °F 55.4 °F 100% 29.94 in 10.0 mi WNW 18.4 mph 23.0 mph N/A   Overcast
11:55 PM 55.4 °F 55.4 °F 100% 29.94 in 10.0 mi WNW 13.8 mph 23.0 mph N/A   Overcast